Regional Weather Roundup
Issued by NWS

Home | Current Version | Previous Version | Graphics & Text | Print | Product List | Glossary On
Versions: 1 2 3 4 5 6 7 8 9 10 11 12 13 14 15 16 17 18 19 20 21 22 23 24 25 26 27 28 29 30 31 32 33 34 35 36 37 38 39 40 41 42 43 44 45 46 47 48 49 50
000
ASUS45 KCYS 300510
RWRWY

WYOMING REGIONAL WEATHER ROUNDUP
NATIONAL WEATHER SERVICE CHEYENNE WY
1100 PM MDT FRI AUG 29 2014

NOTE:  "FAIR" INDICATES FEW OR NO CLOUDS BELOW 12,000 FEET
WITH NO SIGNIFICANT WEATHER AND/OR OBSTRUCTIONS TO VISIBILITY.

WYZ001-300600-
YELLOWSTONE NATIONAL PARK

CITY           SKY/WX    TMP DP  RH WIND       PRES   REMARKS
LK YELLOWSTONE   N/A     51  41  68 CALM      30.20F
W YELLOWSTONE  NOT AVBL

$$
WYZ002>013-054>058-071-098>099-300600-
NORTHERN WYOMING

CITY           SKY/WX    TMP DP  RH WIND       PRES   REMARKS
JACKSON        PTCLDY    52  43  71 CALM      30.11F
CODY           CLEAR     61  46  59 SW5       29.99F
GREYBULL       CLEAR     67  45  45 E6        29.92S
WORLAND        CLEAR     67  47  48 SE13      29.93S
SHERIDAN       CLEAR     58  50  75 S8        29.97S
BUFFALO        PTCLDY    61  47  59 S12       30.05F
GILLETTE       CLEAR     61  49  64 VRB5      30.02F
HULETT         FAIR      59  50  72 MISG      30.05
NEWCASTLE      FAIR      59  50  72 SE7       30.07

$$
WYZ014>020-022>026-101>103-300600-
CENTRAL WYOMING

CITY           SKY/WX    TMP DP  RH WIND       PRES   REMARKS
BIG PINEY      CLEAR     53  40  61 VRB5      30.18F
PINEDALE       PTCLDY    46  41  81 S6        30.19S
DUBOIS         FAIR      54  37  54 W6        30.16F
LANDER         CLEAR     66  40  38 NW7       30.04R
RIVERTON       CLEAR     61  38  42 NW6       30.04S
CASPER         PTCLDY    58  44  60 VRB3      30.07R
DOUGLAS        CLEAR     56  50  80 SE7       30.09S

$$
WYZ021-027>030-104>119-300600-
SOUTHERN WYOMING

CITY           SKY/WX    TMP DP  RH WIND       PRES   REMARKS
EVANSTON       CLEAR     58  41  53 SE7       30.20S
KEMMERER       PTCLDY    59  39  47 CALM      30.21F
FORT BRIDGER   FAIR      58  44  57 S12       30.22F
ROCK SPRINGS   PTCLDY    62  36  37 SW16      30.18F
DIXON          RAIN      56  51  83 NW8       30.25R
RAWLINS        CLEAR     63  42  46 W17       30.17S
SARATOGA       MOCLDY    61  45  55 SW12      30.21R
LARAMIE        PTCLDY    51  46  83 S10       30.22S
CHEYENNE       CLEAR     54  48  80 W6        30.18S
TORRINGTON     PTCLDY    62  56  80 E10       30.06F
PINE BLUFFS    FAIR      54  48  82 CALM      30.14S

$$


USA.gov is the U.S. government's official web portal to all federal, state and local government web resources and services.